Regional Weather Roundup
Issued by NWS Sterling, VA

Home | Current Version | Previous Version | Graphics & Text | Print | Product List | Glossary On
Versions: 1 2 3 4 5 6 7 8 9 10 11 12 13 14 15 16 17 18 19 20 21 22 23 24 25 26 27 28 29 30 31 32 33 34 35 36 37 38 39 40 41 42 43 44 45 46 47 48 49 50
000
ASUS41 KLWX 020810
RWRLWX

REGIONAL WEATHER ROUNDUP
NATIONAL WEATHER SERVICE BALTIMORE MD/WASHINGTON DC
400 AM EDT WED SEP 02 2015

Note: "FAIR" indicates few or no clouds below 12,000 feet
with no significant weather and/or obstructions to visibility.
 TC=TEMPERATURE CELSIUS

 * =Non NWS site. Station does not report precipitation (e.g. rain,
    snow, etc.), thunder, or fog.

DCZ001-MDZ009-015-VAZ040>042-051-053>054-020900-
WASHINGTON METRO

CITY           SKY/WX    TMP DP  RH WIND       PRES   REMARKS
WASHINGTON NAT MOCLDY    78  73  84 CALM      30.03S
DULLES         PTCLDY    71  67  87 CALM      30.04S
ANDREWS AFB    PTCLDY    71  69  93 S2        30.02F
FT BELVOIR     PTCLDY    71  69  95 CALM      30.02S FOG
QUANTICO       MOCLDY    74  70  87 NW8       30.03S
COLLEGE PARK*  PTCLDY    72  72 100 CALM      30.02S
LEESBURG*      MOCLDY    72  70  94 CALM      30.05F
MANASSAS*      CLOUDY    72  72 100 CALM      30.04S
GAITHERSBURG*  PTCLDY    70  64  83 CALM      30.08S

$$

MDZ006>007-011-014-020900-
BALTIMORE METRO

CITY           SKY/WX    TMP DP  RH WIND       PRES   REMARKS
BWI AIRPORT    MOCLDY    72  70  93 CALM      30.02S
MD SCIENCE CTR   N/A     78  68  71 MISG      30.02F
ANNAPOLIS      CLOUDY    77  75  93 CALM      30.01F FOG
FORT MEADE*    PTCLDY    68  66  94 CALM      30.05S

$$

MDZ012-015-019>023-020900-
MARYLAND EASTERN SHORE

CITY           SKY/WX    TMP DP  RH WIND       PRES   REMARKS
OCEAN CITY     PTCLDY    73  70  90 W6        30.01F
SALISBURY      PTCLDY    70  69  97 CALM      30.02F
BAY BRIDGE AP*   N/A     75  73  94 CALM      30.02S
CAMBRIDGE*     PTCLDY    72  68  88 CALM      30.02S

$$

MDZ017>025-020900-
SOUTHERN MARYLAND

CITY           SKY/WX    TMP DP  RH WIND       PRES   REMARKS
PATUXENT RIVER PTCLDY    73  69  87 CALM      30.01F
ST INIGOES     PTCLDY    71  69  93 CALM      30.01F
LEONARDTOWN*   NOT AVBL

$$

MDZ003>005-020900-
NORTH CENTRAL MARYLAND

CITY           SKY/WX    TMP DP  RH WIND       PRES   REMARKS
FREDERICK*     PTCLDY    64  64 100 CALM      30.07S
HAGERSTOWN APT PTCLDY    71  63  75 NW3       30.06S
WESTMINSTER*   PTCLDY    70  66  88 CALM      30.06S

$$

MDZ501>502-020900-
WESTERN MARYLAND

CITY           SKY/WX    TMP DP  RH WIND       PRES   REMARKS
OAKLAND*       CLOUDY    66  61  82 W3        30.20S
CUMBERLAND*    PTCLDY    70  66  88 CALM      30.12S

$$

VAZ025>031-020900-
SHENANDOAH VALLEY

CITY           SKY/WX    TMP DP  RH WIND       PRES   REMARKS
WINCHESTER*    CLEAR     68  66  94 CALM      30.07S
FRONT ROYAL*   FAIR      70  66  88 CALM      30.06S
LURAY*         FAIR      70  68  94 CALM      30.08S
NEW MARKET*    PTSUNNY   69  67  93 CALM      30.08S
STAUNTON*      CLOUDY    73  68  86 CALM      30.12S
WAYNESBORO*    FAIR      70  66  85 CALM      30.12S

$$

WVZ021-048>050-054>055-020900-
EASTERN WEST VIRGINIA PANHANDLE

CITY           SKY/WX    TMP DP  RH WIND       PRES   REMARKS
MARTINSBURG    PTCLDY    68  65  90 CALM      30.06S FOG
PETERSBURG*    MOCLDY    67  67  97 CALM      30.12S FOG

$$

VAZ036>039-050-020900-
CENTRAL FOOTHILLS

CITY           SKY/WX    TMP DP  RH WIND       PRES   REMARKS
CHARLOTTESVILL MOCLDY    74  69  85 CALM      30.05F
CULPEPER*      PTCLDY    67  67 100 CALM      30.05F FOG
ORANGE*        MOCLDY    70  70 100 CALM      30.06S FOG
GORDONSVILLE*  PTSUNNY   69  68  98 CALM      30.04S FOG
WARRENTON*     FAIR      68  68 100 CALM      30.04S FOG

$$

VAZ055>057-020900-
NORTH AND CENTRAL PIEDMONT

CITY           SKY/WX    TMP DP  RH WIND       PRES   REMARKS
FREDERICKSBRG* PTCLDY    73  73 100 CALM      30.03R
STAFFORD*      PTCLDY    70  68  92 CALM      30.07S

$$

NCZ024-NYZ072-PAZ021-071-VAZ022-071-020900-
OTHER REGIONAL OBSERVATIONS

CITY           SKY/WX    TMP DP  RH WIND       PRES   REMARKS
NEW YORK CITY  CLEAR     75  64  68 CALM      30.05F
PHILADELPHIA   CLEAR     74  70  87 CALM      30.03S
PITTSBURGH     MOCLDY    71  66  84 W3        30.09F
ROANOKE        PTCLDY    69  66  90 CALM      30.13S
RICHMOND       MOCLDY    74  69  85 S3        30.04S
RALEIGH        PTCLDY    69  66  90 CALM      30.06F

$$

ANZ530>537-020900-
MARINE OBSERVATIONS

STATION/POSITION TIME  TEMP    WIND        PRES
                       AIR SEA DIR/SP/G
                 (UTC) (F)     (DEG/KT/KT) (MB)
THOMAS PT LIGHT  NOT AVBL
BALT KEY BRIDGE  0700   79     300/  2/  2 1016.4F
COVE POINT       0700   77     190/  4/  5 1017.3F
LEWISETTA        0700   76 81  240/  4/  5 1016.3F
SOLOMONS ISLAND  0700      81                N/A
PINEY POINT      0705          270/  2/  3   N/A

$$



USA.gov is the U.S. government's official web portal to all federal, state and local government web resources and services.